[[{"header":{"parameterUnit":"m.s-1","parameterCategory":1,"la1":30.2991,"la2":30.254,"lo1":-89.0895,"lo2":-89.0444,"dy":0.0017,"dx":0.0017,"nx":28,"ny":28,"refTime":"2025-05-01T09:00:00:Z","depth":0,"parameterNumber":2,"parameterNumberName":"U-component_of_WINDS"},"data":[0,0,0,0,0,0,0,0,0,0,0,0,0,0,0,0,0,0,0,0,0,0,0,0,0,0,0,0,0,0,0,0,0,0,0,0,0,0,0,0,0,0,0,0,0,0,0,0,0,0,0,0,0,0,0,0,0,0,2.3115,2.3115,0,2.3126,2.3126,2.3126,2.3092,2.3091,2.309,2.3089,2.3097,2.3098,2.3099,0,0,0,0,0,0,0,0,0,0,0,0,0,2.306,2.3061,2.3115,2.3115,2.3115,2.3126,2.3126,2.3126,2.3092,2.3091,2.309,2.3088,2.3096,2.3098,2.3099,0,0,0,0,0,0,0,0,0,0,0,0,0,2.3079,2.3062,2.3115,2.31,2.3099,2.3126,2.3126,2.3126,2.3092,2.3091,2.3089,2.3088,2.3096,2.3098,2.3099,2.3141,0,0,2.3105,2.3105,0,0,0,0,0,0,0,0,2.3078,2.3081,2.3102,2.3101,2.31,2.3106,2.3109,2.3131,2.3093,2.3095,2.3089,2.3087,2.3101,2.3102,2.3107,2.3141,2.3141,2.3105,2.3106,2.3107,2.3107,0,0,0,0,0,0,0,2.3076,2.308,2.3119,2.3102,2.3101,2.3091,2.3091,2.3113,2.3106,2.3094,2.3092,2.3094,2.31,2.3106,2.3107,2.3141,2.3105,2.3106,2.3107,2.3108,2.3204,2.3206,0,0,0,0,0,0,2.3078,2.3079,2.3119,2.3119,2.3085,2.3093,2.3094,2.3105,2.3106,2.3104,2.3095,2.3092,2.3103,2.3105,2.3107,2.3152,2.3107,2.3108,2.3109,2.3203,2.3205,2.3206,0,0,0,0,0,0,2.3077,2.3082,2.3118,2.3099,2.3103,2.3095,2.3109,2.3106,2.3112,2.3106,2.3104,2.3103,2.3102,2.3105,2.3132,2.3152,2.3109,2.3111,2.3201,2.3203,2.3205,2.3245,0,0,0,0,0,0,2.3075,2.3081,2.3099,2.3099,2.3104,2.3145,2.311,2.3108,2.3116,2.3112,2.3113,2.3112,2.3101,2.3129,2.3133,2.3154,2.3112,2.3199,2.3202,2.3205,2.3242,2.3248,2.3254,0,0,0,0,0,2.3073,2.311,2.31,2.3105,2.3125,2.3146,2.3148,2.3136,2.3118,2.3133,2.3129,2.3112,2.315,2.3132,2.3137,2.3158,2.3198,2.3201,2.3205,2.3239,2.3247,2.3254,0,0,0,0,0,0,2.3112,2.311,2.3099,2.3137,2.3142,2.314,2.316,2.3146,2.3156,2.3152,2.3136,2.3136,2.3165,2.3164,2.3145,2.3195,2.317,2.3175,2.3195,2.3202,2.3208,2.3207,2.3113,0,0,0,0,0,2.3125,2.3143,2.314,2.3173,2.3176,2.3168,2.3176,2.3167,2.3171,2.3172,2.317,2.3174,2.3186,2.3194,2.3206,2.3242,2.3239,2.3258,2.3264,2.3269,2.3273,2.3287,2.3294,2.3217,2.3217,2.3217,0,0,2.3152,2.3153,2.3165,2.3181,2.3184,2.32,2.317,2.319,2.3201,2.3175,2.32,2.3198,2.32,2.3231,2.3244,2.3231,2.3293,2.3273,2.3278,2.3278,2.3291,2.3299,2.3305,2.322,2.3219,2.3219,0,0,2.3209,2.3213,2.324,2.3242,2.3246,2.324,2.3246,2.3246,2.3244,2.3268,2.3247,2.326,2.3283,2.3284,2.3288,2.3341,2.3324,2.3345,2.3376,2.3391,2.3397,2.3402,2.3417,2.3424,2.3349,2.3349,2.3349,0,2.3242,2.3267,2.3255,2.3275,2.3281,2.3258,2.3282,2.3285,2.3293,2.3296,2.3282,2.3307,2.3308,2.3336,2.3348,2.3354,2.3358,2.3344,2.3397,2.3402,2.3407,2.3421,2.3428,2.3351,2.3351,2.3351,2.3351,0,2.3305,2.3323,2.3344,2.3351,2.3359,2.3382,2.337,2.3379,2.3368,2.3362,2.3385,2.3384,2.3393,2.3399,2.3389,2.3425,2.3416,2.34,2.3374,2.3417,2.343,2.3436,2.3355,2.3354,2.3353,2.3352,0,0,2.3388,2.3385,2.3393,2.3394,2.3395,2.3408,2.3428,2.3436,2.3443,2.3448,2.3462,2.348,2.3464,2.3468,2.3457,2.347,2.3508,2.3451,2.3451,2.3459,2.3543,2.3554,2.3561,2.3497,2.3498,2.3499,2.3542,0,2.3441,2.3476,2.3463,2.3498,2.3512,2.3488,2.3505,2.3506,2.35,2.351,2.3503,2.3515,2.3494,2.3496,2.3508,2.3501,2.3524,2.3498,2.3507,2.3508,2.3505,2.3568,2.358,2.3621,2.3547,2.3548,2.3549,0,2.3509,2.3515,2.3551,2.3546,2.3551,2.3567,2.3571,2.3582,2.3581,2.3576,2.3579,2.3564,2.358,2.3555,2.3575,2.3558,2.3561,2.3557,2.3558,2.3557,2.3529,2.3566,2.3634,2.3639,2.3557,2.3557,2.3556,0,2.3561,2.3579,2.3602,2.3604,2.3599,2.361,2.3608,2.3606,2.3611,2.3615,2.3617,2.3623,2.3625,2.3629,2.3615,2.3599,2.3635,2.361,2.3629,2.3629,2.3637,2.3636,2.3703,2.3643,2.3643,2.3643,2.3642,0,2.3621,2.3643,2.3624,2.3638,2.3661,2.3645,2.3667,2.3663,2.3661,2.3671,2.3652,2.3661,2.3644,2.3651,2.364,2.3656,2.3658,2.3652,2.3649,2.3653,2.3653,2.3653,2.3649,2.3644,2.3644,2.3644,2.3643,0,2.3683,2.3672,2.3694,2.3687,2.3686,2.3703,2.3696,2.3707,2.3699,2.3712,2.3714,2.3701,2.3709,2.3695,2.3701,2.3694,2.3715,2.3709,2.3716,2.3713,2.3731,2.3728,2.3799,2.3806,2.3743,2.3744,2.3744,0,2.372,2.3736,2.373,2.3736,2.3735,2.3745,2.3749,2.3733,2.3738,2.3736,2.3746,2.3752,2.3756,2.3768,2.3758,2.3761,2.3753,2.3777,2.3753,2.3756,2.3749,2.3748,2.3748,2.3782,2.3782,2.3783,2.3784,0,2.3787,2.378,2.3787,2.3791,2.3796,2.3799,2.38,2.3805,2.3788,2.3794,2.3801,2.3803,2.3808,2.3813,2.3813,2.3809,2.3792,2.3791,2.3795,2.3798,2.38,2.3796,2.3726,2.3789,2.3789,2.3788,2.3788,2.3788,2.3836,2.3847,2.3844,2.3851,2.385,2.385,2.3859,2.3851,2.3857,2.386,2.385,2.3858,2.3853,2.3852,2.385,2.3855,2.3844,2.385,2.3851,2.3853,2.3854,2.3801,2.3855,2.3855,2.3855,2.3855,2.3855,0,2.3899,2.3894,2.3901,2.3902,2.3907,2.3892,2.3891,2.3895,2.3903,2.39,2.3904,2.391,2.3913,2.3903,2.3904,2.391,2.3902,2.391,2.3909,2.3907,2.3866,2.3861,2.3917,2.3917,2.3917,2.3917,2.3917,2.3917,2.3932,2.3949,2.3941,2.3956,2.3951,2.396,2.396,2.3959,2.3956,2.3964,2.3967,2.396,2.3953,2.3953,2.3955,2.3951,2.3951,2.3962,2.3956,2.3917,2.3911,2.3905,2.39,2.3963,2.3963,2.3997,2.3997,2.3997]},{"header":{"parameterUnit":"m.s-1","parameterCategory":1,"la1":30.2991,"la2":30.254,"lo1":-89.0895,"lo2":-89.0444,"dy":0.0017,"dx":0.0017,"nx":28,"ny":28,"refTime":"2025-05-01T09:00:00:Z","depth":0,"parameterNumber":3,"parameterNumberName":"V-component_of_WINDS"},"data":[0,0,0,0,0,0,0,0,0,0,0,0,0,0,0,0,0,0,0,0,0,0,0,0,0,0,0,0,0,0,0,0,0,0,0,0,0,0,0,0,0,0,0,0,0,0,0,0,0,0,0,0,0,0,0,0,0,0,4.8664,4.8666,0,4.8801,4.8802,4.8804,4.8772,4.8769,4.8767,4.8764,4.8901,4.8907,4.8913,0,0,0,0,0,0,0,0,0,0,0,0,0,4.8369,4.8375,4.8664,4.8666,4.8668,4.8801,4.8802,4.8804,4.8773,4.8769,4.8766,4.8763,4.8899,4.8906,4.8913,0,0,0,0,0,0,0,0,0,0,0,0,0,4.8501,4.8377,4.8664,4.8668,4.867,4.88,4.8802,4.8805,4.8773,4.8769,4.8765,4.8762,4.8896,4.8905,4.8914,4.9048,0,0,4.8942,4.8946,0,0,0,0,0,0,0,0,4.8493,4.8512,4.8666,4.8668,4.867,4.8766,4.8748,4.8886,4.8774,4.8734,4.8764,4.876,4.8859,4.8871,4.8905,4.9055,4.906,4.8943,4.8948,4.8952,4.8955,0,0,0,0,0,0,0,4.8484,4.8506,4.8718,4.8668,4.8671,4.8661,4.8675,4.8774,4.8816,4.8737,4.8735,4.8752,4.8859,4.8896,4.8908,4.9062,4.8942,4.895,4.8956,4.896,4.9324,4.9328,0,0,0,0,0,0,4.8474,4.8498,4.8714,4.8722,4.857,4.8669,4.8685,4.8739,4.8815,4.8823,4.8755,4.875,4.8882,4.8897,4.8912,4.9071,4.8952,4.8961,4.8966,4.932,4.9325,4.933,0,0,0,0,0,0,4.8468,4.8494,4.8708,4.861,4.8636,4.8678,4.8739,4.8743,4.878,4.8829,4.8836,4.8785,4.888,4.8899,4.9014,4.9075,4.8965,4.8973,4.9315,4.9321,4.9327,4.9392,0,0,0,0,0,0,4.846,4.8492,4.8545,4.8611,4.8642,4.881,4.8743,4.8749,4.8797,4.8791,4.8859,4.8867,4.8878,4.9,4.9023,4.9086,4.898,4.9309,4.9318,4.9325,4.9384,4.94,4.9413,0,0,0,0,0,4.8449,4.8558,4.8548,4.8574,4.8709,4.8813,4.8831,4.8843,4.8802,4.8854,4.8884,4.8864,4.9065,4.9012,4.9037,4.9104,4.9306,4.9315,4.9325,4.9378,4.9397,4.9412,0,0,0,0,0,0,4.8497,4.8567,4.8556,4.869,4.8746,4.8808,4.8874,4.8863,4.8931,4.8923,4.8934,4.895,4.9065,4.9096,4.9036,4.9235,4.9179,4.9194,4.9211,4.9229,4.9243,4.9233,4.8987,0,0,0,0,0,4.8523,4.8604,4.8659,4.8772,4.88,4.8833,4.8878,4.8883,4.8941,4.8964,4.9003,4.9059,4.9134,4.9184,4.9256,4.9389,4.9401,4.9447,4.9461,4.9472,4.9484,4.9553,4.9573,4.9361,4.9361,4.9361,0,0,4.8578,4.8626,4.8676,4.8782,4.8826,4.8907,4.8853,4.8941,4.9,4.8977,4.9087,4.9117,4.918,4.9303,4.9359,4.9333,4.9546,4.9484,4.9493,4.9499,4.9565,4.9585,4.9603,4.9367,4.9366,4.9365,0,0,4.8718,4.8764,4.8861,4.8906,4.8973,4.8993,4.9016,4.9079,4.9099,4.9209,4.9192,4.9262,4.9392,4.9437,4.9476,4.963,4.9612,4.9653,4.9726,4.9793,4.981,4.9824,4.9876,4.9895,4.9665,4.9665,4.9665,0,4.8777,4.89,4.8912,4.9001,4.9047,4.903,4.9126,4.9168,4.9255,4.9286,4.9255,4.9416,4.9457,4.9589,4.9626,4.966,4.9684,4.9645,4.9807,4.9822,4.9836,4.9885,4.9905,4.967,4.9669,4.9669,4.9668,0,4.8967,4.9052,4.9122,4.9206,4.926,4.9352,4.9376,4.9428,4.9427,4.945,4.956,4.9609,4.9689,4.972,4.9721,4.9851,4.9832,4.9804,4.9747,4.986,4.9906,4.9926,4.9676,4.9674,4.9673,4.9672,0,0,4.9143,4.9231,4.9256,4.9292,4.9364,4.9428,4.9518,4.9597,4.964,4.97,4.9774,4.9883,4.9856,4.9901,4.9906,4.9965,5.0079,4.9929,4.993,4.9953,5.0222,5.0241,5.0263,5.0068,5.0072,5.0075,5.0215,0,4.9288,4.9448,4.9459,4.9602,4.9679,4.9662,4.974,4.979,4.9813,4.988,4.9904,4.998,4.9941,4.9967,5.0025,5.0053,5.0133,5.0043,5.0134,5.0137,5.0117,5.0288,5.0309,5.044,5.0234,5.0237,5.0239,0,4.9479,4.9543,4.9694,4.9752,4.9784,4.9854,4.9925,4.999,5.0045,5.0057,5.0106,5.0102,5.0191,5.0132,5.0253,5.0192,5.0229,5.0248,5.0253,5.0261,5.0194,5.0298,5.0482,5.0501,5.0269,5.0266,5.0264,0,4.9588,4.9713,4.9818,4.985,4.9921,4.997,5.0001,5.0053,5.0098,5.016,5.0189,5.026,5.0298,5.0352,5.0366,5.0322,5.0486,5.0429,5.0496,5.0496,5.0531,5.0528,5.0721,5.0558,5.0558,5.0558,5.0557,0,4.9747,4.9839,4.9868,4.9933,5.0034,5.0045,5.0145,5.0173,5.0219,5.0286,5.0277,5.034,5.0355,5.0421,5.0432,5.0529,5.0547,5.0557,5.0558,5.0557,5.0555,5.0581,5.0571,5.0563,5.0562,5.0561,5.056,0,4.9886,4.9909,5.0023,5.0079,5.0095,5.0167,5.0215,5.0275,5.0296,5.0382,5.0402,5.0434,5.0511,5.053,5.0621,5.0628,5.0742,5.0736,5.0723,5.0722,5.0788,5.078,5.1003,5.1031,5.0851,5.0853,5.0855,0,4.9985,5.0055,5.0119,5.0164,5.0197,5.027,5.0316,5.0329,5.0377,5.0444,5.0495,5.0571,5.0631,5.0754,5.0784,5.0853,5.0847,5.092,5.0857,5.0852,5.0845,5.084,5.0845,5.0931,5.0933,5.0935,5.0936,0,5.0158,5.0165,5.0232,5.0303,5.0358,5.0414,5.0467,5.0504,5.0524,5.0578,5.0656,5.0703,5.0795,5.0869,5.0938,5.0967,5.0954,5.0956,5.0974,5.0973,5.0961,5.0966,5.0753,5.095,5.0949,5.0948,5.0947,5.0946,5.0278,5.0338,5.0392,5.0466,5.0507,5.0557,5.0616,5.0643,5.0709,5.0785,5.0788,5.0872,5.0923,5.1014,5.1047,5.1112,5.1089,5.1117,5.1124,5.113,5.1134,5.0953,5.1125,5.1124,5.1124,5.1123,5.1123,0,5.0448,5.0481,5.0549,5.0623,5.0681,5.0664,5.0722,5.077,5.0845,5.0893,5.0953,5.1041,5.1111,5.1146,5.1216,5.126,5.1256,5.1278,5.1274,5.128,5.1152,5.1128,5.128,5.128,5.128,5.128,5.128,5.128,5.0542,5.0643,5.0656,5.0775,5.0807,5.089,5.0923,5.0968,5.1006,5.1105,5.1164,5.1186,5.1229,5.1301,5.1364,5.1372,5.1397,5.1421,5.1426,5.1306,5.129,5.1274,5.1251,5.1427,5.1428,5.1549,5.155,5.1551]}]]